Helicity
78 78 71 66 68 69 80 87 96 82 74 72 75 88 77 79 96 5 28 11 15 53 61 85 56 88 31 29 4 39 84 -22 6 -47 20 68 167 91 73 70 36 60 62 116 212
71 71 73 73 70 72 86 95 113 89 86 76 69 80 59 43 32 36 27 30 53 50 59 69 108 93 41 44 17 25 -84 -98 15 72 27 28 178 121 176 136 84 143 161 197 239
79 74 77 74 78 85 87 91 110 99 91 83 69 77 58 41 44 43 33 25 23 39 52 75 102 59 29 22 -33 34 122 134 79 162 -8 72 75 64 230 114 97 185 176 216 266
90 83 77 78 84 92 93 89 108 100 89 86 71 76 55 11 30 37 2 -10 2 21 62 96 96 48 5 12 14 -61 47 40 41 39 -17 -16 7 57 70 64 120 173 175 206 249
100 99 97 89 86 93 99 96 107 107 92 76 68 60 19 37 22 -0 -3 -16 -13 32 93 154 132 60 45 96 -22 -26 10 14 54 31 11 19 28 28 7 173 167 196 185 184 153
115 116 112 103 91 90 92 101 103 115 102 63 48 47 16 33 7 -6 -7 -6 11 56 135 178 117 80 106 102 68 64 31 18 20 14 1 74 36 149 63 238 250 281 192 174 182
123 125 126 118 103 97 95 98 120 119 105 46 27 9 20 15 -2 -22 -0 13 23 50 126 144 85 59 85 123 115 128 11 25 40 34 2 67 56 82 204 249 315 290 268 188 204
118 122 128 129 122 111 104 118 144 124 66 11 8 -0 22 3 15 33 4 38 70 75 22 80 40 79 77 83 98 26 -15 -54 6 -0 -10 43 33 148 207 301 259 239 262 235 201
121 129 133 130 131 108 108 172 136 57 -0 5 9 9 36 49 11 38 13 33 108 96 43 44 52 44 49 12 -9 -4 52 41 -1 -13 84 19 55 91 161 236 211 201 245 252 197
128 140 147 146 140 119 164 172 39 47 19 11 20 42 28 51 15 18 7 27 90 84 83 52 59 44 19 6 1 8 -33 -13 67 -32 2 -17 4 4 150 234 193 161 224 309 281
125 139 149 154 158 120 114 85 96 78 48 34 31 26 41 73 15 17 -6 33 43 42 52 79 54 3 -0 16 51 61 -5 -7 16 37 23 50 62 32 83 190 171 238 289 308 278
149 142 151 167 183 151 90 122 78 45 57 37 23 1 11 30 49 35 48 36 32 30 60 75 10 66 48 94 -0 15 10 17 20 27 36 16 -5 -8 31 237 277 286 327 302 271
162 174 171 194 234 53 110 160 174 93 22 44 29 16 -5 40 10 16 44 51 39 41 30 29 106 86 56 66 43 35 1 19 30 29 16 35 17 -11 17 225 294 228 292 231 287
152 169 184 265 80 118 135 190 200 36 54 29 49 38 46 61 32 35 29 81 29 24 59 102 93 109 73 41 19 22 29 9 56 92 45 18 -10 17 -45 249 267 234 212 177 302
159 149 163 129 119 143 129 214 141 77 57 22 35 71 96 120 34 43 52 60 22 20 101 72 112 48 31 6 25 30 27 35 43 -6 20 12 71 18 70 198 103 106 108 237 323
169 134 121 61 84 115 209 163 86 145 81 81 42 82 147 48 20 105 51 78 33 32 75 127 43 29 13 15 22 30 59 64 21 22 34 34 68 15 111 85 31 100 217 251 321
188 130 65 70 111 147 178 116 169 136 131 99 62 63 68 65 2 30 84 82 66 65 48 55 73 41 28 46 72 61 67 49 52 82 40 19 49 23 54 81 122 308 259 248 285
197 167 27 79 84 145 129 185 172 72 83 124 118 56 66 79 42 63 75 90 76 78 48 47 75 -20 8 -9 -4 48 70 71 29 60 43 18 50 55 116 82 143 163 292 97 9
165 37 57 87 79 108 149 219 160 72 116 13 126 81 35 33 31 96 50 79 54 76 43 51 40 2 8 62 75 39 50 22 68 55 70 19 23 72 112 151 158 189 146 -45 94
72 91 85 83 84 149 170 148 93 16 157 201 103 110 43 11 32 58 81 68 70 32 89 16 96 17 53 116 49 27 42 69 74 47 47 26 10 36 122 145 312 487 285 142 14
77 139 104 68 124 181 122 85 33 -46 34 169 206 144 184 151 45 14 27 53 81 24 143 102 54 48 26 81 64 27 76 73 36 46 63 45 31 8 27 122 208 213 121 240 220
100 133 20 72 160 133 63 51 59 56 17 56 86 74 159 121 120 83 -2 28 42 49 37 82 64 56 27 53 32 6 13 42 89 54 55 46 -4 31 117 109 137 151 87 89 144
119 124 73 96 133 113 83 42 -1 38 53 114 133 46 46 167 159 142 220 212 146 123 87 45 64 108 89 85 57 41 43 37 92 83 29 62 58 86 164 134 124 101 84 94 22
97 154 112 86 82 90 91 42 48 52 55 91 164 51 72 186 174 148 315 235 153 205 172 177 127 146 68 26 77 107 118 104 76 91 27 53 70 146 206 166 95 63 136 141 18
135 212 123 151 158 141 80 108 116 123 107 68 150 78 121 117 120 108 142 216 155 213 138 149 232 183 161 128 126 109 103 135 98 -4 2 -1 171 108 158 178 126 156 79 -19 -125
124 138 110 153 195 194 91 105 166 245 213 154 72 123 111 55 69 84 111 167 156 182 142 142 176 180 210 132 91 91 107 50 -0 52 -22 29 61 129 211 115 49 -18 11 154 141
115 66 60 149 180 252 252 139 166 216 171 171 120 111 123 181 143 98 116 80 125 102 185 120 120 143 108 103 59 70 15 23 92 123 40 -17 38 232 253 231 142 38 159 285 218
Wind_Speed
36 37 39 40 40 40 40 39 38 38 37 37 37 36 35 36 37 33 35 37 37 38 38 36 29 27 32 27 28 26 27 27 14 39 26 44 44 43 43 48 38 40 45 50 55
39 39 41 41 42 41 41 40 40 40 40 39 38 36 35 35 30 33 35 34 37 36 35 34 29 27 25 35 30 36 15 17 37 34 37 38 41 40 41 45 46 48 49 51 52
41 42 43 43 44 44 43 43 43 42 42 41 39 37 35 32 27 29 29 33 33 34 34 32 33 30 28 28 28 38 36 36 31 30 31 40 36 33 37 36 38 45 48 47 45
45 45 45 45 46 46 46 45 45 45 44 43 40 38 35 28 24 29 26 27 28 29 29 27 24 23 21 22 37 25 35 35 31 30 28 37 33 28 29 29 38 44 46 45 42
48 49 49 49 49 49 49 48 48 47 46 44 42 38 32 32 34 31 26 27 27 27 29 29 27 27 23 30 13 14 35 42 36 33 29 32 27 26 29 33 40 42 42 39 38
50 52 52 52 53 52 52 51 50 50 48 45 42 39 35 36 32 28 27 28 32 31 32 34 39 36 37 32 23 37 32 35 37 35 29 26 29 29 30 39 40 40 37 37 34
52 54 55 55 56 56 55 55 54 52 50 46 42 39 40 43 35 27 27 35 36 35 35 35 34 35 39 37 33 33 35 36 38 41 6 26 29 27 35 36 35 34 34 33 34
54 56 57 58 59 59 59 59 58 55 51 45 42 38 42 36 34 33 38 43 43 43 40 39 35 41 39 40 37 33 32 29 42 47 31 15 27 21 33 30 30 30 30 29 30
57 58 59 60 60 61 61 62 60 53 46 43 38 37 43 42 42 45 41 46 40 43 42 41 35 33 34 29 28 29 30 10 33 37 14 17 21 17 32 30 28 27 25 26 25
58 60 61 62 62 62 63 61 49 42 35 37 41 41 41 38 38 38 41 48 44 41 41 36 32 33 32 25 20 32 37 36 26 16 34 18 21 17 24 26 29 24 24 24 25
59 60 62 62 62 61 56 40 40 40 41 43 40 45 46 40 29 31 31 38 38 38 39 36 35 38 34 34 49 49 36 40 38 33 22 16 24 12 11 23 21 17 23 23 25
61 61 62 62 62 58 39 36 39 44 55 58 65 63 63 50 44 35 27 30 34 43 37 39 47 53 45 49 42 37 38 42 40 30 30 16 16 32 14 15 21 23 25 30 26
62 62 62 62 61 36 41 42 53 51 51 58 52 53 53 39 44 41 28 31 38 46 45 36 37 39 49 45 41 41 43 45 15 33 30 40 50 54 44 2 15 19 25 29 28
61 62 61 63 39 43 39 48 49 40 50 53 47 50 46 38 52 44 35 28 35 42 42 41 48 50 50 35 41 47 35 35 35 39 37 47 54 60 43 9 18 17 27 16 20
60 60 58 49 48 40 44 51 48 33 50 38 38 35 23 32 36 35 25 30 39 46 34 39 48 46 38 42 35 36 37 39 43 43 46 49 40 41 28 15 16 16 13 12 16
61 59 56 39 44 45 52 48 32 39 50 41 27 27 22 37 45 26 21 25 35 45 54 64 55 49 41 37 41 36 40 42 42 39 39 33 26 32 20 10 13 13 5 6 8
63 61 54 45 41 42 47 33 40 48 43 39 30 16 20 30 54 46 40 17 43 44 56 53 53 49 42 38 44 33 39 40 38 32 30 42 32 36 38 13 8 16 19 19 4
65 61 43 43 46 41 35 36 50 46 49 37 39 44 37 31 44 47 50 31 48 44 45 44 49 43 36 40 35 24 22 25 35 37 50 44 49 47 46 39 12 21 26 38 68
60 44 42 44 44 34 33 49 49 39 34 44 48 44 54 47 42 44 53 41 39 40 42 37 43 45 57 44 26 33 31 35 38 41 45 42 37 34 33 27 27 26 24 18 25
48 44 41 26 9 26 38 53 53 42 42 40 37 37 49 49 44 45 43 47 42 39 40 44 51 49 49 12 29 27 27 39 39 44 41 37 43 28 16 19 21 25 27 32 16
38 36 33 8 15 33 45 50 57 52 45 39 46 39 36 31 38 49 55 54 38 48 35 39 42 53 34 26 17 35 40 34 31 30 38 47 54 36 19 27 26 29 37 41 37
35 33 19 8 33 41 48 42 50 56 47 49 45 40 38 38 34 39 49 56 53 57 46 37 35 53 36 42 39 38 36 32 32 33 35 45 54 38 26 29 28 34 38 43 33
37 36 28 29 44 52 49 55 57 64 64 47 47 39 40 40 33 33 34 35 44 37 42 36 44 48 42 38 36 33 31 32 29 33 52 59 58 29 24 20 29 31 40 35 41
34 35 37 41 43 47 46 53 56 51 66 58 55 41 39 38 29 35 35 28 25 21 28 34 33 38 33 33 35 38 45 45 41 49 62 56 45 23 12 17 24 27 33 28 19
32 36 34 40 47 58 52 45 53 49 49 51 48 39 40 38 33 33 34 30 24 29 25 28 31 29 28 36 39 44 51 55 56 57 61 75 35 13 4 8 13 17 21 20 16
34 37 38 45 43 42 42 45 54 53 48 54 51 45 32 33 31 33 32 30 29 32 26 31 33 36 45 42 43 52 56 59 55 57 55 56 48 27 17 20 13 10 9 15 12
38 39 36 40 38 33 40 50 40 41 40 44 52 42 38 40 40 38 32 28 30 29 35 36 36 44 56 53 55 63 55 58 43 47 50 51 52 30 26 30 18 13 17 22 18
Wind_Direction
316 313 314 311 308 304 300 297 296 298 296 290 288 280 276 273 268 257 240 235 243 256 261 245 257 268 213 188 218 176 41 34 316 89 136 121 76 94 84 79 88 83 83 98 102
314 310 309 305 304 301 296 294 294 296 294 289 287 280 278 285 262 238 235 246 243 248 242 237 243 266 260 122 76 125 7 17 82 78 130 148 90 87 74 77 64 61 81 99 98
309 308 304 301 300 297 294 292 292 293 292 288 287 282 279 279 259 249 253 242 246 239 232 242 243 242 251 244 44 107 125 173 165 158 152 126 123 104 80 72 94 89 99 106 99
306 304 301 297 296 295 292 290 290 291 289 288 287 283 275 271 273 254 262 248 249 239 240 248 265 305 338 19 172 75 150 138 184 151 83 113 122 110 114 113 104 101 107 109 106
303 302 300 297 295 294 290 288 287 287 287 288 286 283 272 265 253 252 271 250 248 250 247 253 267 280 298 213 140 28 237 191 197 207 102 49 87 131 129 94 102 101 107 109 112
301 301 299 295 295 291 289 285 284 282 284 284 283 279 268 264 263 279 275 255 238 249 253 261 221 261 214 238 251 215 253 249 241 240 218 21 103 87 112 103 107 109 113 113 118
299 299 296 295 293 290 287 284 280 279 276 279 282 279 263 258 264 287 284 249 245 245 246 257 279 277 260 236 254 253 261 261 229 221 29 33 24 90 112 113 109 112 115 117 124
299 297 295 294 292 290 286 283 279 273 270 278 284 278 261 267 275 273 255 244 234 234 246 247 280 265 263 250 274 273 295 314 232 273 163 49 7 78 123 115 117 119 117 121 122
297 296 294 294 293 290 285 280 276 273 279 282 285 281 263 269 261 253 260 239 257 246 251 252 278 264 264 291 289 305 2 101 227 296 1 73 29 83 137 137 130 130 122 118 116
297 296 294 293 293 292 286 280 286 290 296 291 278 275 265 269 273 272 262 244 260 264 266 273 278 269 266 294 352 329 330 351 64 100 245 117 46 75 144 148 147 136 128 117 113
298 296 294 291 290 293 294 292 288 286 290 274 272 268 263 273 288 282 271 265 273 275 269 276 278 264 267 291 255 228 322 312 299 217 111 45 2 38 60 154 146 126 131 124 116
297 296 294 291 287 287 299 292 290 289 273 267 253 253 243 258 270 279 283 279 275 264 273 273 257 240 266 268 256 299 310 307 302 320 304 56 66 13 30 158 163 142 127 126 113
297 295 294 289 285 295 284 285 280 287 277 269 268 263 254 273 265 267 280 276 271 259 258 272 261 280 267 278 294 298 297 310 5 327 341 326 291 294 339 91 150 143 133 130 114
297 295 294 290 286 286 278 288 294 297 277 272 268 266 258 273 268 269 272 274 274 264 262 270 261 264 262 300 296 288 304 324 329 323 322 325 311 304 341 59 148 136 139 122 108
293 293 291 288 277 274 284 288 289 290 269 280 270 273 270 258 283 275 264 262 268 255 281 271 274 281 288 291 296 288 310 314 311 318 314 317 336 342 10 57 109 116 135 124 118
289 288 289 284 275 271 282 283 290 269 264 276 276 268 262 259 259 285 271 261 282 269 266 254 274 281 288 295 280 300 303 306 312 324 326 344 357 356 10 79 114 160 35 112 94
285 281 280 277 267 277 282 278 264 259 271 275 266 263 267 266 250 261 268 248 262 264 255 264 266 272 282 287 279 309 307 305 316 324 337 343 351 341 327 335 332 357 15 354 96
286 277 284 273 264 274 274 260 257 263 256 277 285 266 263 269 260 256 256 254 260 260 267 268 264 263 281 278 289 308 328 324 314 318 318 334 323 329 323 324 13 45 58 10 236
289 288 281 270 255 266 262 252 253 260 265 277 279 266 257 262 266 258 254 255 266 258 262 270 266 274 270 278 291 296 307 312 313 321 321 332 345 352 2 30 58 49 44 82 3
292 279 271 286 252 266 260 255 252 257 273 279 271 283 260 256 256 259 256 256 261 264 259 266 268 276 290 269 284 304 317 306 314 312 321 330 331 341 10 45 25 1 9 353 11
291 277 276 296 266 262 259 258 252 256 269 266 266 280 280 269 264 257 253 255 257 260 256 260 270 260 298 281 290 302 306 313 326 328 323 319 316 328 335 339 340 346 348 350 350
285 273 269 266 264 263 262 265 260 254 261 264 265 273 277 277 269 276 259 252 255 251 256 256 272 265 285 276 286 304 307 316 313 325 331 323 307 319 332 344 344 337 340 343 340
277 271 264 269 265 259 267 262 255 252 251 256 260 272 282 276 274 287 273 276 260 264 252 257 262 262 274 282 292 299 324 331 322 329 312 309 303 330 337 348 353 359 353 343 277
274 267 267 264 270 266 267 262 251 257 251 253 256 273 276 273 284 276 277 284 294 275 271 260 268 255 262 279 295 298 302 315 326 310 298 304 323 337 14 20 13 12 14 26 145
274 268 277 267 267 258 257 263 253 258 257 255 255 265 272 267 272 278 282 283 293 291 283 272 262 268 274 285 292 297 299 302 305 308 303 284 315 305 8 54 78 52 36 37 137
273 274 277 273 277 272 254 261 254 257 262 255 253 258 273 262 266 271 278 282 280 279 284 290 275 277 274 285 292 291 292 298 309 310 312 314 315 330 9 5 93 79 55 10 21
283 280 277 271 281 276 268 259 261 266 264 270 253 254 264 262 265 270 281 285 281 283 277 281 280 278 272 284 286 281 294 298 310 314 315 311 319 330 334 336 8 25 1 359 15